Location: Losili
(4.4086°N, 32.7049°E)
Time: 20:47:49
(UTC+00:00)

ARIANE 5 R/B - Pass Details

Date: 18 September 2019
Orbit: 263 x 32127 km, 2.7° (Epoch: 17 October)

Event Time Altitude Azimuth Distance (km) Brightness Sun altitude
Rises 17:11:42 0° 262° (W) 6,204 8.1 -21.9°
Reaches altitude 10° 17:18:11 10° 257° (WSW) 3,069 6.1 -23.5°
Enters shadow 17:22:55 35° 212° (SSW) 816 2.3 -24.6°
